Weather History for McConnell AFB, KS

Change the Weather History Date:

Friday, October 12, 2012

  Actual Average Record
Temperature  
Mean Temperature 60 °F -  
Max Temperature 68 °F 69 °F 86 °F (1999)
Min Temperature 51 °F 47 °F 39 °F (2006)
Degree Days  
Heating Degree Days 6    
Growing Degree Days 10 (Base 50)    
Moisture  
Dew Point 58 °F    
Average Humidity 98    
Maximum Humidity 100    
Minimum Humidity 59    
Precipitation  
Precipitation 0.53 in - - ()
Sea Level Pressure  
Sea Level Pressure 30.12 in    
Wind  
Wind Speed 10 mph (East)    
Max Wind Speed 18 mph    
Max Gust Speed 26 mph    
Visibility 6 miles    
Events Fog , Rain , Thunderstorm    
Averages and records for this station are not official NWS values.
T = Trace of Precipitation, MM = Missing Value Source: NWS Daily Summary

Daily Weather History Graph

Daily Weather History Graph

Search for Another Location

Airport:

Trip Planner

Search our weather history database for the weather conditions in past years. The results will help you decide how hot, cold, wet, or windy it might be!

Date:

Astronomy

Oct. 12, 2012 Rise Set
Actual Time 7:34 AM CDT 6:55 PM CDT
Civil Twilight 7:08 AM CDT 7:21 PM CDT
Nautical Twilight 6:38 AM CDT 7:51 PM CDT
Astronomical Twilight 6:07 AM CDT 8:22 PM CDT
Moon 4:22 AM CDT (10/12) 5:03 PM CDT (10/12)
Length of Visible Light 12h 12m
Length of Day
11h 20m
Waning Crescent, 10% of the Moon is Illuminated
Oct 12
Waning Crescent
Oct 15
New
Oct 21
First Quarter
Oct 29
Full
Nov 6
Last Quarter

Hourly Weather History & Observations

Time (CDT) Temp. Dew Point Humidity Pressure Visibility Wind Dir Wind Speed Gust Speed Precip Events Conditions
12:55 AM 67.1 °F 67.1 °F 100% 30.09 in 10.0 mi SE 5.8 mph - N/A   Mostly Cloudy
1:55 AM 67.5 °F 67.5 °F 100% 30.09 in 10.0 mi North 6.9 mph - N/A   Overcast
2:09 AM 68.0 °F 68.0 °F 100% 30.09 in 10.0 mi North 5.8 mph - N/A   Overcast
2:28 AM 68.0 °F 68.0 °F 100% 30.09 in 10.0 mi NNE 4.6 mph - N/A   Overcast
2:55 AM 67.6 °F 67.6 °F 100% 30.08 in 10.0 mi NNE 5.8 mph - N/A   Mostly Cloudy
3:32 AM 64.4 °F 64.4 °F 100% 30.07 in 10.0 mi NNE 10.4 mph - N/A   Mostly Cloudy
3:35 AM 64.4 °F 62.6 °F 94% 30.07 in 10.0 mi NNE 10.4 mph - N/A   Mostly Cloudy
3:55 AM 64.2 °F 61.5 °F 91% 30.08 in 10.0 mi NNE 15.0 mph - N/A   Overcast
4:55 AM 59.7 °F 45.5 °F 59% 30.11 in 10.0 mi NNE 17.3 mph - N/A   Overcast
5:55 AM 58.8 °F 49.1 °F 70% 30.11 in 10.0 mi NE 18.4 mph 26.5 mph N/A   Overcast
6:36 AM 57.2 °F 51.8 °F 82% 30.12 in 10.0 mi ENE 18.4 mph - N/A   Overcast
6:55 AM 56.5 °F 52.2 °F 85% 30.13 in 10.0 mi ENE 17.3 mph - N/A   Overcast
7:55 AM 54.9 °F 49.6 °F 83% 30.15 in 10.0 mi ENE 11.5 mph - N/A   Overcast
8:44 AM 53.6 °F 50.0 °F 88% 30.17 in 10.0 mi ENE 12.7 mph 21.9 mph N/A Rain , Thunderstorm Light Rain
8:46 AM 53.6 °F 50.0 °F 88% 30.17 in 10.0 mi ENE 12.7 mph - N/A Rain , Thunderstorm Light Thunderstorms and Rain
8:55 AM 54.3 °F 50.9 °F 88% 30.18 in 10.0 mi ENE 11.5 mph 20.7 mph 0.00 in Rain , Thunderstorm Light Thunderstorms and Rain
9:02 AM 53.6 °F 51.8 °F 94% 30.24 in 4.0 mi Variable 6.9 mph - N/A Rain , Thunderstorm Light Thunderstorms and Rain
9:04 AM 53.6 °F 51.8 °F 94% 30.22 in 2.5 mi East 9.2 mph - N/A Rain , Thunderstorm Light Rain
9:06 AM 53.6 °F 51.8 °F 94% 30.20 in 1.5 mi ESE 9.2 mph - N/A Rain , Thunderstorm Heavy Rain
9:07 AM 53.6 °F 51.8 °F 94% 30.21 in 1.0 mi Variable 6.9 mph - N/A Rain , Thunderstorm Heavy Rain
9:09 AM 53.6 °F 51.8 °F 94% 30.22 in 0.8 mi Variable 5.8 mph - N/A Rain , Thunderstorm Heavy Rain
9:11 AM 53.6 °F 51.8 °F 94% 30.23 in 0.8 mi North 5.8 mph - N/A Rain , Thunderstorm Heavy Thunderstorms and Rain
9:16 AM 51.8 °F 51.8 °F 100% 30.21 in 1.0 mi ENE 10.4 mph - N/A Rain , Thunderstorm Heavy Thunderstorms and Rain
9:17 AM 51.8 °F 51.8 °F 100% 30.21 in 1.0 mi ENE 9.2 mph - N/A Rain , Thunderstorm Heavy Thunderstorms and Rain
9:18 AM 51.8 °F 51.8 °F 100% 30.21 in 1.2 mi ENE 8.1 mph - N/A Rain , Thunderstorm Heavy Thunderstorms and Rain
9:19 AM 51.8 °F 51.8 °F 100% 30.21 in 1.5 mi ENE 6.9 mph - N/A Rain , Thunderstorm Heavy Thunderstorms and Rain
9:22 AM 51.8 °F 51.8 °F 100% 30.21 in 2.0 mi NE 6.9 mph - N/A Rain , Thunderstorm Heavy Thunderstorms and Rain
9:25 AM 51.8 °F 51.8 °F 100% 30.20 in 3.0 mi ENE 10.4 mph - N/A Rain , Thunderstorm Light Thunderstorms and Rain
9:28 AM 51.8 °F 51.8 °F 100% 30.19 in 5.0 mi ENE 10.4 mph - N/A Rain , Thunderstorm Light Thunderstorms and Rain
9:33 AM 51.8 °F 51.8 °F 100% 30.19 in 2.0 mi ENE 16.1 mph - N/A Rain , Thunderstorm Light Thunderstorms and Rain
9:34 AM 51.8 °F 51.8 °F 100% 30.19 in 1.5 mi ENE 17.3 mph - N/A Rain , Thunderstorm Light Thunderstorms and Rain
9:35 AM 51.8 °F 51.8 °F 100% 30.18 in 1.2 mi ENE 17.3 mph - N/A Rain , Thunderstorm Light Thunderstorms and Rain
9:36 AM 51.8 °F 51.8 °F 100% 30.18 in 1.0 mi ENE 17.3 mph - N/A Rain , Thunderstorm Light Thunderstorms and Rain
9:38 AM 51.8 °F 51.8 °F 100% 30.18 in 0.8 mi ENE 15.0 mph - N/A Rain , Thunderstorm Light Thunderstorms and Rain
9:41 AM 51.8 °F 51.8 °F 100% 30.19 in 0.8 mi ENE 13.8 mph - N/A Rain , Thunderstorm Light Thunderstorms and Rain
9:42 AM 51.8 °F 51.8 °F 100% 30.18 in 1.0 mi ENE 12.7 mph - N/A Rain , Thunderstorm Light Thunderstorms and Rain
9:44 AM 51.8 °F 51.8 °F 100% 30.19 in 1.5 mi ENE 11.5 mph - N/A Rain , Thunderstorm Light Thunderstorms and Rain
9:46 AM 51.8 °F 51.8 °F 100% 30.19 in 2.5 mi NE 10.4 mph - N/A Rain , Thunderstorm Light Thunderstorms and Rain
9:47 AM 51.8 °F 51.8 °F 100% 30.19 in 4.0 mi NE 11.5 mph - N/A Rain , Thunderstorm Light Thunderstorms and Rain
9:48 AM 51.8 °F 51.8 °F 100% 30.20 in 5.0 mi NE 11.5 mph - N/A Rain , Thunderstorm Light Thunderstorms and Rain
9:55 AM 52.5 °F 52.5 °F 100% 30.20 in 6.0 mi ENE 10.4 mph - 0.36 in Rain , Thunderstorm Light Thunderstorms and Rain
10:49 AM 55.4 °F 55.4 °F 100% 30.20 in 10.0 mi East 9.2 mph - N/A   Mostly Cloudy
10:55 AM 55.2 °F 55.2 °F 100% 30.20 in 10.0 mi East 9.2 mph - 0.00 in   Mostly Cloudy
11:16 AM 55.4 °F 55.4 °F 100% 30.20 in 10.0 mi East 9.2 mph - N/A   Overcast
11:31 AM 57.2 °F 57.2 °F 100% 30.20 in 10.0 mi East 9.2 mph - N/A   Overcast
11:34 AM 57.2 °F 57.2 °F 100% 30.20 in 10.0 mi East 10.4 mph - N/A   Overcast
11:55 AM 57.0 °F 56.8 °F 99% 30.20 in 10.0 mi ENE 10.4 mph - N/A   Overcast
12:55 PM 58.6 °F 57.0 °F 94% 30.17 in 10.0 mi East 6.9 mph - N/A   Overcast
1:49 PM 60.8 °F 59.0 °F 94% 30.15 in 10.0 mi ESE 8.1 mph - N/A   Overcast
1:55 PM 60.3 °F 59.0 °F 96% 30.15 in 10.0 mi ESE 8.1 mph - N/A   Overcast
2:07 PM 60.8 °F 59.0 °F 94% 30.14 in 10.0 mi ESE 8.1 mph - N/A Rain Light Rain
2:14 PM 60.8 °F 60.8 °F 100% 30.14 in 10.0 mi ESE 5.8 mph - N/A Rain , Thunderstorm Light Thunderstorms and Rain
2:21 PM 60.8 °F 60.8 °F 100% 30.14 in 5.0 mi East 8.1 mph - N/A Rain , Thunderstorm Light Thunderstorms and Rain
2:24 PM 59.0 °F 59.0 °F 100% 30.14 in 2.5 mi East 6.9 mph - N/A Rain , Thunderstorm Light Thunderstorms and Rain
2:25 PM 59.0 °F 59.0 °F 100% 30.14 in 1.8 mi East 5.8 mph - N/A Rain , Thunderstorm Light Thunderstorms and Rain
2:27 PM 59.0 °F 59.0 °F 100% 30.13 in 1.2 mi ENE 8.1 mph - N/A Rain , Thunderstorm Heavy Thunderstorms and Rain
2:31 PM 59.0 °F 59.0 °F 100% 30.13 in 1.2 mi East 8.1 mph - N/A Rain , Thunderstorm Thunderstorms and Rain
2:34 PM 59.0 °F 59.0 °F 100% 30.13 in 1.5 mi East 8.1 mph - N/A Rain , Thunderstorm Light Thunderstorms and Rain
2:35 PM 59.0 °F 59.0 °F 100% 30.13 in 2.0 mi ESE 9.2 mph - N/A Rain , Thunderstorm Light Thunderstorms and Rain
2:37 PM 59.0 °F 59.0 °F 100% 30.13 in 3.0 mi ESE 9.2 mph - N/A Rain , Thunderstorm Light Thunderstorms and Rain
2:42 PM 59.0 °F 59.0 °F 100% 30.13 in 9.0 mi East 8.1 mph - N/A Thunderstorm Thunderstorm
2:43 PM 59.0 °F 59.0 °F 100% 30.13 in 10.0 mi East 8.1 mph - N/A Thunderstorm Thunderstorm
2:55 PM 60.1 °F 60.1 °F 100% 30.13 in 10.0 mi East 8.1 mph - 0.17 in Thunderstorm Thunderstorm
3:05 PM 60.8 °F 60.8 °F 100% 30.12 in 10.0 mi East 12.7 mph - N/A Thunderstorm Thunderstorm
3:07 PM 60.8 °F 60.8 °F 100% 30.12 in 10.0 mi East 11.5 mph - N/A Thunderstorm Overcast
3:12 PM 60.8 °F 60.8 °F 100% 30.12 in 10.0 mi East 9.2 mph - N/A Thunderstorm Overcast
3:18 PM 60.8 °F 60.8 °F 100% 30.12 in 10.0 mi East 9.2 mph - N/A   Overcast
3:31 PM 60.8 °F 60.8 °F 100% 30.11 in 10.0 mi East 10.4 mph - N/A   Overcast
3:32 PM 60.8 °F 60.8 °F 100% 30.11 in 10.0 mi East 11.5 mph - N/A Rain Light Rain
3:33 PM 60.8 °F 60.8 °F 100% 30.11 in 10.0 mi East 11.5 mph - N/A Rain Light Rain
3:41 PM 60.8 °F 60.8 °F 100% 30.11 in 9.0 mi East 11.5 mph - N/A   Overcast
3:46 PM 60.8 °F 60.8 °F 100% 30.11 in 8.0 mi East 10.4 mph - N/A   Overcast
3:55 PM 60.1 °F 60.1 °F 100% 30.10 in 7.0 mi East 10.4 mph - 0.00 in   Overcast
4:26 PM 59.0 °F 59.0 °F 100% 30.10 in 4.0 mi East 9.2 mph - N/A Rain Light Rain
4:49 PM 60.8 °F 60.8 °F 100% 30.10 in 3.0 mi East 9.2 mph - N/A   Overcast
4:55 PM 59.9 °F 59.9 °F 100% 30.10 in 3.0 mi East 8.1 mph - 0.00 in   Overcast
5:06 PM 60.8 °F 60.8 °F 100% 30.09 in 1.8 mi East 8.1 mph - N/A   Overcast
5:22 PM 60.8 °F 60.8 °F 100% 30.09 in 1.2 mi East 9.2 mph - N/A   Overcast
5:28 PM 60.8 °F 60.8 °F 100% 30.09 in 1.0 mi East 6.9 mph - N/A   Overcast
5:39 PM 60.8 °F 60.8 °F 100% 30.09 in 1.0 mi East 9.2 mph - N/A   Overcast
5:40 PM 60.8 °F 60.8 °F 100% 30.09 in 0.8 mi East 8.1 mph - N/A   Overcast
5:44 PM 60.8 °F 60.8 °F 100% 30.09 in 0.8 mi East 8.1 mph - N/A   Overcast
5:55 PM 60.8 °F 60.8 °F 100% 30.10 in 0.8 mi East 5.8 mph - N/A   Overcast
6:12 PM 60.8 °F 60.8 °F 100% 30.09 in 0.5 mi ESE 8.1 mph - N/A Fog Fog
6:14 PM 60.8 °F 60.8 °F 100% 30.09 in 0.2 mi ESE 6.9 mph - N/A Fog Fog
6:17 PM 60.8 °F 60.8 °F 100% 30.09 in 0.2 mi ESE 6.9 mph - N/A Fog Fog
6:48 PM 62.6 °F 62.6 °F 100% 30.06 in 0.2 mi East 6.9 mph - N/A Fog Fog
7:00 PM 62.6 °F 62.6 °F 100% 30.04 in 0.5 mi ESE 12.7 mph - N/A Fog Fog
7:01 PM 62.6 °F 62.6 °F 100% 30.04 in 0.5 mi ESE 13.8 mph - N/A Fog Fog
7:02 PM 62.6 °F 62.6 °F 100% 30.04 in 0.5 mi ESE 13.8 mph - N/A Fog Fog
7:03 PM 62.6 °F 62.6 °F 100% 30.03 in 0.8 mi ESE 12.7 mph - N/A   Overcast
7:06 PM 62.6 °F 62.6 °F 100% 30.03 in 1.0 mi ESE 15.0 mph - N/A   Overcast
7:08 PM 62.6 °F 62.6 °F 100% 30.02 in 1.2 mi ESE 15.0 mph - N/A   Overcast
7:09 PM 62.6 °F 62.6 °F 100% 30.03 in 1.5 mi ESE 15.0 mph - N/A   Overcast
7:12 PM 62.6 °F 62.6 °F 100% 30.03 in 2.0 mi ESE 13.8 mph - N/A   Overcast
7:14 PM 62.6 °F 62.6 °F 100% 30.03 in 3.0 mi ESE 12.7 mph - N/A   Overcast
7:20 PM 62.6 °F 62.6 °F 100% 30.03 in 6.0 mi ESE 13.8 mph - N/A   Overcast
7:23 PM 62.6 °F 62.6 °F 100% 30.04 in 6.0 mi SE 13.8 mph - N/A   Overcast
7:38 PM 64.4 °F 64.4 °F 100% 30.04 in 8.0 mi SE 11.5 mph - N/A   Overcast
7:39 PM 64.4 °F 64.4 °F 100% 30.04 in 8.0 mi SE 11.5 mph - N/A   Overcast
7:55 PM 64.6 °F 64.6 °F 100% 30.04 in 10.0 mi SE 10.4 mph - N/A   Overcast
8:55 PM 66.2 °F 66.2 °F 100% 30.05 in 10.0 mi SE 8.1 mph - N/A   Overcast
9:55 PM 66.2 °F 66.2 °F 100% 30.06 in 10.0 mi ESE 6.9 mph - N/A   Overcast
10:55 PM 66.0 °F 66.0 °F 100% 30.04 in 10.0 mi ESE 9.2 mph - N/A   Overcast
11:23 PM 66.2 °F 66.2 °F 100% 30.02 in 10.0 mi ESE 8.1 mph - N/A   Overcast
11:37 PM 66.2 °F 66.2 °F 100% 30.01 in 10.0 mi ESE 9.2 mph - N/A   Overcast
11:55 PM 65.3 °F 65.3 °F 100% 30.01 in 10.0 mi ESE 9.2 mph - N/A   Overcast